| time (UTC) | temp F | wind direction | speed knots | gust knots | rain 1hr in | rain 24hr in | rain mn in | humidity % | barometer mb |
| 20260502123016 | 52 | 113 | 4.3 | 9.6 | 0.00 | 0.00 | 0.00 | 29 | 1021.9 |
| 20260502122016 | 53 | 113 | 5.2 | 10.4 | 0.00 | 0.00 | 0.00 | 28 | 1022.2 |
| 20260502121058 | 53 | 113 | 7.0 | 10.4 | 0.00 | 0.00 | 0.00 | 25 | 1022.3 |
| 20260502115036 | 53 | 135 | 3.5 | 7.0 | 0.00 | 0.00 | 0.00 | 27 | 1022.2 |
| 20260502114017 | 52 | 113 | 4.3 | 10.4 | 0.00 | 0.00 | 0.00 | 28 | 1022.3 |
| 20260502113037 | 52 | 113 | 5.2 | 13.0 | 0.00 | 0.00 | 0.00 | 28 | 1022.2 |
| 20260502112016 | 53 | 113 | 7.0 | 12.2 | 0.00 | 0.00 | 0.00 | 27 | 1022.2 |
| 20260502111017 | 53 | 90 | 5.2 | 8.7 | 0.00 | 0.00 | 0.00 | 29 | 1022.3 |
| 20260502110017 | 53 | 135 | 3.5 | 7.8 | 0.00 | 0.00 | 0.00 | 28 | 1022.3 |
| 20260502105017 | 53 | 113 | 7.0 | 12.2 | 0.00 | 0.00 | 0.00 | 27 | 1022.3 |
| 20260502104037 | 55 | 113 | 5.2 | 9.6 | 0.00 | 0.00 | 0.00 | 25 | 1022.7 |
| 20260502103017 | 55 | 68 | 7.8 | 14.8 | 0.00 | 0.00 | 0.00 | 25 | 1022.3 |
| 20260502102016 | 53 | 113 | 4.3 | 8.7 | 0.00 | 0.00 | 0.00 | 28 | 1022.3 |
| 20260502101016 | 53 | 113 | 7.0 | 12.2 | 0.00 | 0.00 | 0.00 | 28 | 1022.3 |
| 20260502091017 | 53 | 113 | 5.2 | 13.0 | 0.00 | 0.00 | 0.00 | 29 | 1022.2 |
| 20260502071017 | 51 | 90 | 9.6 | 13.9 | 0.00 | 0.00 | 0.00 | 31 | 1021.8 |
| 20260502070017 | 50 | 90 | 8.7 | 12.2 | 0.00 | 0.00 | 0.00 | 33 | 1021.5 |
| 20260502065016 | 51 | 135 | 4.3 | 8.7 | 0.00 | 0.00 | 0.00 | 32 | 1021.3 |
| 20260502064017 | 51 | 113 | 7.0 | 13.0 | 0.00 | 0.00 | 0.00 | 31 | 1021.2 |
| 20260502063037 | 53 | 113 | 4.3 | 10.4 | 0.00 | 0.00 | 0.00 | 29 | 1021.5 |
| 20260502062017 | 53 | 113 | 7.0 | 12.2 | 0.00 | 0.00 | 0.00 | 27 | 1021.0 |
| 20260502061017 | 52 | 113 | 9.6 | 14.8 | 0.00 | 0.00 | 0.00 | 30 | 1021.1 |
| 20260502060017 | 51 | 113 | 2.6 | 6.1 | 0.00 | 0.00 | 0.00 | 33 | 1020.7 |
| 20260502055017 | 51 | 113 | 6.1 | 13.9 | 0.00 | 0.00 | 0.00 | 36 | 1020.7 |
| 20260502054018 | 51 | 90 | 8.7 | 13.9 | 0.00 | 0.00 | 0.00 | 36 | 1020.7 |
| 20260502053017 | 51 | 113 | 8.7 | 12.2 | 0.00 | 0.00 | 0.00 | 38 | 1020.7 |
| 20260502052017 | 51 | 113 | 8.7 | 13.9 | 0.00 | 0.00 | 0.00 | 38 | 1020.4 |
| 20260502051017 | 53 | 113 | 8.7 | 13.9 | 0.00 | 0.00 | 0.00 | 38 | 1020.5 |
| 20260502050017 | 54 | 90 | 8.7 | 14.8 | 0.00 | 0.00 | 0.00 | 36 | 1020.5 |
| 20260502045017 | 52 | 113 | 7.0 | 11.3 | 0.00 | 0.00 | 0.00 | 42 | 1020.2 |
| 20260502044017 | 53 | 113 | 6.1 | 12.2 | 0.00 | 0.00 | 0.00 | 42 | 1020.2 |
| 20260502043039 | 54 | 113 | 2.6 | 7.0 | 0.00 | 0.00 | 0.00 | 40 | 1020.6 |
| 20260502042018 | 55 | 113 | 4.3 | 8.7 | 0.00 | 0.00 | 0.00 | 39 | 1020.2 |
| 20260502041018 | 54 | 90 | 8.7 | 13.9 | 0.00 | 0.00 | 0.00 | 39 | 1019.8 |
| 20260502040038 | 54 | 90 | 9.6 | 14.8 | 0.00 | 0.00 | 0.00 | 42 | 1019.8 |
| 20260502035037 | 54 | 90 | 7.8 | 15.6 | 0.00 | 0.00 | 0.00 | 41 | 1019.7 |
| 20260502034017 | 54 | 90 | 7.8 | 12.2 | 0.00 | 0.00 | 0.00 | 42 | 1019.6 |
| 20260502033018 | 55 | 113 | 7.8 | 12.2 | 0.00 | 0.00 | 0.00 | 40 | 1019.4 |
| 20260502032017 | 55 | 113 | 7.0 | 11.3 | 0.00 | 0.00 | 0.00 | 41 | 1018.6 |
| 20260502031018 | 54 | 113 | 6.1 | 9.6 | 0.00 | 0.00 | 0.00 | 43 | 1018.5 |
| 20260502030038 | 55 | 113 | 3.5 | 7.0 | 0.00 | 0.00 | 0.00 | 41 | 1018.4 |
| 20260502025017 | 56 | 113 | 2.6 | 5.2 | 0.00 | 0.00 | 0.00 | 37 | 1018.2 |
| 20260502024017 | 57 | 113 | 3.5 | 7.0 | 0.00 | 0.00 | 0.00 | 38 | 1018.5 |
| 20260502023037 | 58 | 225 | 0.9 | 3.5 | 0.00 | 0.00 | 0.00 | 35 | 1018.4 |
| 20260502022018 | 59 | 338 | 0.9 | 2.6 | 0.00 | 0.00 | 0.00 | 33 | 1018.6 |
| 20260502021017 | 60 | 315 | 0.9 | 2.6 | 0.00 | 0.00 | 0.00 | 33 | 1018.4 |
| 20260502020017 | 61 | 315 | 1.7 | 6.1 | 0.00 | 0.00 | 0.00 | 31 | 1018.7 |
| 20260502015019 | 62 | 315 | 3.5 | 7.0 | 0.00 | 0.00 | 0.00 | 30 | 1018.6 |
| 20260502014017 | 62 | 315 | 3.5 | 7.8 | 0.00 | 0.00 | 0.00 | 30 | 1018.5 |
| 20260502013018 | 62 | 315 | 3.5 | 7.0 | 0.00 | 0.00 | 0.00 | 31 | 1018.6 |
| 20260502012015 | 62 | 315 | 3.5 | 8.7 | 0.00 | 0.00 | 0.00 | 29 | 1018.5 |
| 20260502011018 | 63 | 315 | 3.5 | 7.8 | 0.00 | 0.00 | 0.00 | 30 | 1018.6 |
| 20260502010017 | 63 | 315 | 3.5 | 7.0 | 0.00 | 0.00 | 0.00 | 28 | 1018.5 |
| 20260502005058 | 63 | 315 | 3.5 | 7.8 | 0.00 | 0.00 | 0.00 | 30 | 1019.0 |
| 20260502004017 | 63 | 315 | 5.2 | 8.7 | 0.00 | 0.00 | 0.00 | 29 | 1019.0 |
| 20260502003017 | 64 | 315 | 2.6 | 6.1 | 0.00 | 0.00 | 0.00 | 29 | 1018.9 |
| 20260502002017 | 64 | 315 | 4.3 | 7.8 | 0.00 | 0.00 | 0.00 | 30 | 1019.2 |
| 20260502001018 | 64 | 315 | 3.5 | 8.7 | 0.00 | 0.00 | 0.00 | 29 | 1019.3 |
| 20260502000017 | 63 | 0 | 5.2 | 10.4 | 0.00 | 0.00 | 0.00 | 29 | 1019.4 |
| 20260501235017 | 63 | 315 | 5.2 | 9.6 | 0.00 | 0.00 | 0.00 | 29 | 1019.3 |
| 20260501234017 | 64 | 315 | 4.3 | 11.3 | 0.00 | 0.00 | 0.00 | 28 | 1019.4 |
| 20260501233017 | 64 | 315 | 5.2 | 10.4 | 0.00 | 0.00 | 0.00 | 27 | 1019.7 |
| 20260501232017 | 64 | 315 | 4.3 | 11.3 | 0.00 | 0.00 | 0.00 | 27 | 1019.6 |
| 20260501231018 | 64 | 315 | 4.3 | 11.3 | 0.00 | 0.00 | 0.00 | 26 | 1019.8 |
| 20260501230017 | 64 | 315 | 3.5 | 8.7 | 0.00 | 0.00 | 0.00 | 26 | 1019.8 |
| 20260501225017 | 63 | 315 | 4.3 | 8.7 | 0.00 | 0.00 | 0.00 | 27 | 1019.9 |
| 20260501224038 | 63 | 315 | 4.3 | 8.7 | 0.00 | 0.00 | 0.00 | 27 | 1020.0 |
| 20260501223017 | 63 | 315 | 5.2 | 9.6 | 0.00 | 0.00 | 0.00 | 28 | 1020.1 |
| 20260501222017 | 63 | 315 | 4.3 | 9.6 | 0.00 | 0.00 | 0.00 | 27 | 1020.2 |
| 20260501221017 | 63 | 315 | 2.6 | 9.6 | 0.00 | 0.00 | 0.00 | 26 | 1020.2 |
| 20260501220037 | 63 | 315 | 3.5 | 7.8 | 0.00 | 0.00 | 0.00 | 27 | 1020.4 |
| 20260501215017 | 63 | 315 | 3.5 | 8.7 | 0.00 | 0.00 | 0.00 | 25 | 1020.5 |
| 20260501214017 | 63 | 270 | 5.2 | 12.2 | 0.00 | 0.00 | 0.00 | 25 | 1020.6 |
| 20260501213018 | 63 | 315 | 4.3 | 7.0 | 0.00 | 0.00 | 0.00 | 26 | 1020.8 |
| 20260501212017 | 62 | 338 | 4.3 | 11.3 | 0.00 | 0.00 | 0.00 | 26 | 1020.8 |
| 20260501211017 | 63 | 270 | 4.3 | 9.6 | 0.00 | 0.00 | 0.00 | 25 | 1020.8 |
| 20260501210037 | 63 | 338 | 2.6 | 10.4 | 0.00 | 0.00 | 0.00 | 25 | 1020.8 |
| 20260501205038 | 63 | 315 | 4.3 | 10.4 | 0.00 | 0.00 | 0.00 | 25 | 1021.1 |
| 20260501204017 | 62 | 248 | 1.7 | 4.3 | 0.00 | 0.00 | 0.00 | 22 | 1020.7 |
| 20260501203017 | 62 | 315 | 3.5 | 7.8 | 0.00 | 0.00 | 0.00 | 23 | 1020.9 |
| 20260501202017 | 61 | 315 | 4.3 | 11.3 | 0.00 | 0.00 | 0.00 | 23 | 1020.9 |
| 20260501201037 | 61 | 315 | 3.5 | 7.8 | 0.00 | 0.00 | 0.00 | 22 | 1020.9 |
| 20260501200017 | 61 | 315 | 3.5 | 7.0 | 0.00 | 0.00 | 0.00 | 24 | 1020.9 |
| 20260501195018 | 62 | 315 | 4.3 | 8.7 | 0.00 | 0.00 | 0.00 | 22 | 1021.0 |
| 20260501194017 | 61 | 315 | 4.3 | 7.8 | 0.00 | 0.00 | 0.00 | 22 | 1021.0 |
| 20260501193018 | 61 | 270 | 3.5 | 6.1 | 0.00 | 0.00 | 0.00 | 23 | 1021.1 |
| 20260501192018 | 61 | 293 | 2.6 | 7.0 | 0.00 | 0.00 | 0.00 | 24 | 1021.1 |
| 20260501191017 | 61 | 270 | 3.5 | 11.3 | 0.00 | 0.00 | 0.00 | 25 | 1021.2 |
| 20260501190017 | 61 | 45 | 2.6 | 7.0 | 0.00 | 0.00 | 0.00 | 23 | 1021.2 |
| 20260501185017 | 60 | 45 | 2.6 | 7.0 | 0.00 | 0.00 | 0.00 | 23 | 1021.2 |
| 20260501184018 | 60 | 315 | 2.6 | 7.0 | 0.00 | 0.00 | 0.00 | 25 | 1021.4 |
| 20260501183017 | 59 | 315 | 2.6 | 7.0 | 0.00 | 0.00 | 0.00 | 26 | 1021.1 |
| 20260501182017 | 59 | 315 | 5.2 | 9.6 | 0.00 | 0.00 | 0.00 | 26 | 1021.6 |
| 20260501181038 | 58 | 248 | 2.6 | 7.8 | 0.00 | 0.00 | 0.00 | 27 | 1021.3 |
| 20260501180037 | 58 | 315 | 4.3 | 9.6 | 0.00 | 0.00 | 0.00 | 26 | 1021.3 |
| 20260501175017 | 58 | 23 | 4.3 | 10.4 | 0.00 | 0.00 | 0.00 | 27 | 1021.3 |
| 20260501174138 | 57 | 315 | 5.2 | 9.6 | 0.00 | 0.00 | 0.00 | 29 | 1021.5 |
| 20260501173017 | 57 | 0 | 5.2 | 12.2 | 0.00 | 0.00 | 0.00 | 29 | 1021.7 |
| 20260501172017 | 57 | 338 | 5.2 | 9.6 | 0.00 | 0.00 | 0.00 | 29 | 1021.4 |
| 20260501171017 | 56 | 23 | 5.2 | 13.0 | 0.00 | 0.00 | 0.00 | 30 | 1021.4 |
| 20260501170017 | 55 | 23 | 6.1 | 12.2 | 0.00 | 0.00 | 0.00 | 31 | 1021.6 |
| 20260501165037 | 55 | 23 | 7.0 | 13.9 | 0.00 | 0.00 | 0.00 | 32 | 1021.6 |
| 20260501164017 | 55 | 45 | 7.0 | 14.8 | 0.00 | 0.00 | 0.00 | 32 | 1021.7 |
| 20260501163038 | 55 | 113 | 2.6 | 7.8 | 0.00 | 0.00 | 0.00 | 34 | 1021.9 |
| 20260501162017 | 54 | 68 | 2.6 | 7.0 | 0.00 | 0.00 | 0.00 | 35 | 1021.5 |
| 20260501161037 | 53 | 248 | 1.7 | 3.5 | 0.00 | 0.00 | 0.00 | 40 | 1021.7 |
| 20260501160018 | 52 | 248 | 0.9 | 3.5 | 0.00 | 0.00 | 0.00 | 41 | 1021.5 |
| 20260501155017 | 51 | 248 | 2.6 | 6.1 | 0.00 | 0.00 | 0.00 | 41 | 1021.6 |
| 20260501154018 | 51 | 248 | 2.6 | 5.2 | 0.00 | 0.00 | 0.00 | 41 | 1021.6 |
| 20260501153017 | 50 | 135 | 0.9 | 2.6 | 0.00 | 0.00 | 0.00 | 42 | 1021.3 |
| 20260501152017 | 49 | 135 | 1.7 | 2.6 | 0.00 | 0.00 | 0.00 | 45 | 1021.0 |
| 20260501151037 | 48 | 135 | 1.7 | 2.6 | 0.00 | 0.00 | 0.00 | 47 | 1021.0 |